Weather History for KFKN - October, 2012

Change the Weather History Date:

Sunday, October 7, 2012

  Actual Average (KSFQ) Record (KSFQ)
Temperature  
Mean Temperature 58 °F -  
Max Temperature 64 °F 72 °F 92 °F (1951)
Min Temperature 53 °F 52 °F 34 °F (1980)
Degree Days  
Heating Degree Days 6    
Growing Degree Days 8 (Base 50)    
Moisture  
Dew Point 51 °F    
Average Humidity 84    
Maximum Humidity 100    
Minimum Humidity 42    
Precipitation  
Precipitation 0.00 in - - ()
Sea Level Pressure  
Sea Level Pressure 30.05 in    
Wind  
Wind Speed 6 mph (North)    
Max Wind Speed 17 mph    
Max Gust Speed 22 mph    
Visibility 8 miles    
Events      
Averages and records for this station are not official NWS values.
T = Trace of Precipitation, MM = Missing Value Source: NWS Daily Summary

Daily Weather History Graph

Daily Weather History Graph

Search for Another Location

Airport or City:

Trip Planner

Search our weather history database for the weather conditions in past years. The results will help you decide how hot, cold, wet, or windy it might be!

Date:

Astronomy

Oct. 07, 2012 Rise Set
Actual Time 7:08 AM EDT 6:41 PM EDT
Civil Twilight 6:42 AM EDT 7:07 PM EDT
Nautical Twilight 6:12 AM EDT 7:37 PM EDT
Astronomical Twilight 5:42 AM EDT 8:07 PM EDT
Moon 11:57 PM EDT (10/7) 1:37 PM EDT (10/7)
Length of Visible Light 12h 24m
Length of Day
11h 33m
Waning Gibbous, 56% of the Moon is Illuminated
Oct 7
Waning Gibbous
Oct 8
Last Quarter
Oct 15
New
Oct 21
First Quarter
Oct 29
Full

Hourly Weather History & Observations

Time (EDT) Temp. Dew Point Humidity Pressure Visibility Wind Dir Wind Speed Gust Speed Precip Events Conditions
12:15 AM 64.4 °F 51.8 °F 64% 30.00 in 10.0 mi North 5.8 mph - N/A   Mostly Cloudy
12:35 AM 64.4 °F 51.8 °F 64% 30.00 in - NNE 5.8 mph - N/A   Unknown
12:55 AM 64.4 °F 46.4 °F 52% 29.99 in 10.0 mi NE 11.5 mph - N/A   Mostly Cloudy
1:15 AM 62.6 °F 41.0 °F 45% 29.99 in 10.0 mi NNE 9.2 mph - N/A   Mostly Cloudy
1:35 AM 62.6 °F 39.2 °F 42% 29.99 in - NNE 8.1 mph - N/A   Unknown
1:55 AM 62.6 °F 39.2 °F 42% 30.01 in 10.0 mi NNE 5.8 mph - N/A   Overcast
2:15 AM 62.6 °F 41.0 °F 45% 30.00 in 10.0 mi NNE 4.6 mph - N/A   Overcast
2:35 AM 60.8 °F 42.8 °F 52% 30.00 in - NNE 3.5 mph - N/A   Unknown
3:15 AM 60.8 °F 42.8 °F 52% 30.00 in 10.0 mi North 3.5 mph - N/A   Overcast
3:35 AM 60.8 °F 44.6 °F 55% 30.00 in - North 4.6 mph - N/A   Unknown
3:55 AM 60.8 °F 44.6 °F 55% 30.00 in 10.0 mi North 3.5 mph - N/A   Overcast
4:15 AM 60.8 °F 44.6 °F 55% 30.03 in 10.0 mi NW 9.2 mph - N/A   Overcast
4:35 AM 60.8 °F 44.6 °F 55% 30.04 in - NNW 6.9 mph 12.7 mph N/A   Unknown
4:55 AM 57.2 °F 46.4 °F 67% 30.05 in 5.0 mi NW 4.6 mph - N/A   Overcast
5:15 AM 55.4 °F 48.2 °F 77% 30.04 in 5.0 mi North 9.2 mph - N/A   Overcast
5:35 AM 53.6 °F 48.2 °F 82% 30.03 in - NNE 6.9 mph - N/A   Unknown
5:55 AM 53.6 °F 50.0 °F 88% 30.03 in 10.0 mi NNE 8.1 mph - N/A   Mostly Cloudy
6:15 AM 53.6 °F 50.0 °F 88% 30.04 in 10.0 mi NNE 6.9 mph - N/A   Overcast
6:35 AM 53.6 °F 50.0 °F 88% 30.04 in - North 5.8 mph - N/A   Unknown
6:55 AM 53.6 °F 51.8 °F 94% 30.04 in 7.0 mi North 5.8 mph - N/A   Overcast
7:15 AM 53.6 °F 51.8 °F 94% 30.04 in 10.0 mi North 6.9 mph - N/A   Overcast
7:35 AM 53.6 °F 51.8 °F 94% 30.03 in - NNE 5.8 mph - N/A   Unknown
7:55 AM 53.6 °F 51.8 °F 94% 30.04 in 10.0 mi North 3.5 mph - N/A   Overcast
8:15 AM 55.4 °F 51.8 °F 88% 30.04 in 10.0 mi NNE 3.5 mph - N/A   Overcast
8:55 AM 55.4 °F 53.6 °F 94% 30.04 in 10.0 mi NNE 6.9 mph - N/A   Overcast
9:15 AM 57.2 °F 53.6 °F 88% 30.04 in 10.0 mi NE 6.9 mph - N/A   Overcast
9:55 AM 55.4 °F 53.6 °F 94% 30.06 in 10.0 mi North 6.9 mph - N/A   Overcast
10:15 AM 55.4 °F 53.6 °F 94% 30.06 in 10.0 mi North 5.8 mph - N/A   Overcast
10:35 AM 55.4 °F 53.6 °F 94% 30.12 in - NW 17.3 mph 21.9 mph N/A   Unknown
10:55 AM 53.6 °F 51.8 °F 94% 30.10 in 5.0 mi NNW 8.1 mph - N/A   Overcast
11:15 AM 53.6 °F 51.8 °F 94% 30.10 in 3.0 mi North 8.1 mph - N/A   Overcast
11:55 AM 53.6 °F 51.8 °F 94% 30.05 in 7.0 mi NE 6.9 mph - N/A   Overcast
12:15 PM 55.4 °F 53.6 °F 94% 30.04 in 5.0 mi ENE 9.2 mph - N/A   Overcast
12:55 PM 57.2 °F 53.6 °F 88% 30.05 in 10.0 mi North 6.9 mph - N/A   Overcast
1:15 PM 57.2 °F 53.6 °F 88% 30.05 in 10.0 mi NNE 6.9 mph - N/A   Overcast
1:35 PM 57.2 °F 53.6 °F 88% 30.04 in - NNE 5.8 mph - N/A   Unknown
1:55 PM 57.2 °F 53.6 °F 88% 30.03 in 10.0 mi North 6.9 mph - N/A   Overcast
2:15 PM 55.4 °F 53.6 °F 94% 30.03 in 10.0 mi North 5.8 mph - N/A   Overcast
2:35 PM 55.4 °F 53.6 °F 94% 30.02 in - North 5.8 mph - N/A   Unknown
2:55 PM 57.2 °F 53.6 °F 88% 30.02 in 10.0 mi North 4.6 mph - N/A   Overcast
3:15 PM 57.2 °F 53.6 °F 88% 30.02 in 10.0 mi North 4.6 mph - N/A   Overcast
3:35 PM 57.2 °F 53.6 °F 88% 30.02 in - NNE 6.9 mph - N/A   Unknown
3:55 PM 55.4 °F 53.6 °F 94% 30.02 in 7.0 mi North 3.5 mph - N/A   Overcast
4:15 PM 55.4 °F 53.6 °F 94% 30.01 in 4.0 mi North 4.6 mph - N/A   Overcast
4:35 PM 55.4 °F 53.6 °F 94% 30.01 in - North 4.6 mph - N/A   Unknown
4:55 PM 55.4 °F 55.4 °F 100% 30.01 in 2.5 mi NNE 6.9 mph - N/A   Overcast
5:15 PM 55.4 °F 55.4 °F 100% 30.02 in 5.0 mi North 4.6 mph - N/A   Overcast
5:35 PM 55.4 °F 55.4 °F 100% 30.03 in - NNW 3.5 mph - N/A   Unknown
5:55 PM 55.4 °F 55.4 °F 100% 30.03 in 3.0 mi NW 3.5 mph - N/A   Overcast
6:15 PM 55.4 °F 55.4 °F 100% 30.04 in 2.5 mi Calm Calm - N/A   Overcast
6:35 PM 55.4 °F 55.4 °F 100% 30.06 in - NW 4.6 mph - N/A   Unknown
6:55 PM 55.4 °F 53.6 °F 94% 30.07 in 1.5 mi NNW 5.8 mph - N/A   Overcast
7:15 PM 55.4 °F 53.6 °F 94% 30.09 in 1.5 mi NW 5.8 mph - N/A   Overcast
7:35 PM 55.4 °F 53.6 °F 94% 30.09 in - NNW 5.8 mph - N/A   Unknown
7:55 PM 53.6 °F 53.6 °F 100% 30.11 in 2.5 mi NNW 8.1 mph - N/A   Overcast
8:15 PM 53.6 °F 51.8 °F 94% 30.12 in 4.0 mi NNW 9.2 mph - N/A   Overcast
8:55 PM 53.6 °F 51.8 °F 94% 30.14 in 5.0 mi NNW 3.5 mph - N/A   Overcast
9:15 PM 53.6 °F 51.8 °F 94% 30.14 in 10.0 mi NNW 3.5 mph - N/A   Overcast
9:55 PM 53.6 °F 51.8 °F 94% 30.15 in 10.0 mi Calm Calm - N/A   Overcast
10:15 PM 53.6 °F 51.8 °F 94% 30.15 in 10.0 mi North 3.5 mph - N/A   Overcast
10:35 PM 53.6 °F 51.8 °F 94% 30.14 in - North 3.5 mph - N/A   Unknown
10:55 PM 53.6 °F 51.8 °F 94% 30.14 in 10.0 mi Calm Calm - N/A   Unknown
11:15 PM 53.6 °F 51.8 °F 94% 30.14 in 10.0 mi Calm Calm - N/A   Overcast
11:35 PM 53.6 °F 51.8 °F 94% 30.15 in - Calm Calm - N/A   Unknown
11:55 PM 53.6 °F 51.8 °F 94% 30.15 in 10.0 mi Calm Calm - N/A   Overcast